�������l�o���
Date,Time,MP-1(��Sv/h),MP-2(��Sv/h),MP-3(��Sv/h),MP-4(��Sv/h),MP-5(��Sv/h),MP-6(��Sv/h),MP-7(��Sv/h),MP-8(��Sv/h),����,����(m/s),���J
2022/09/28,00:00,0.571,0.816,0.526,1.015,0.715,0.338,0.591,0.554,�k�k��,2.3,��
2022/09/28,00:10,0.569,0.818,0.528,1.013,0.716,0.337,0.588,0.554,�k�k��,2.3,��
2022/09/28,00:20,0.569,0.817,0.526,1.012,0.716,0.337,0.587,0.554,�k,3.1,��
2022/09/28,00:30,0.569,0.819,0.527,1.015,0.715,0.338,0.587,0.553,�k,3.8,��
2022/09/28,00:40,0.569,0.819,0.526,1.013,0.716,0.337,0.588,0.554,�k,3.7,��
2022/09/28,00:50,0.571,0.820,0.528,1.015,0.716,0.337,0.587,0.555,�k�k��,3.9,��
2022/09/28,01:00,0.570,0.818,0.525,1.013,0.714,0.337,0.588,0.555,�k,4.2,��
2022/09/28,01:10,0.570,0.818,0.527,1.011,0.718,0.337,0.588,0.554,�k�k��,5.2,��
2022/09/28,01:20,0.570,0.818,0.527,1.010,0.716,0.337,0.590,0.553,�k�k��,5.3,��
2022/09/28,01:30,0.571,0.819,0.526,1.015,0.716,0.338,0.590,0.553,�k�k��,5.3,��
2022/09/28,01:40,0.569,0.820,0.527,1.012,0.716,0.338,0.588,0.553,�k�k��,5.2,��
2022/09/28,01:50,0.570,0.818,0.527,1.014,0.715,0.338,0.589,0.554,�k�k��,5.4,��
2022/09/28,02:00,0.569,0.819,0.527,1.013,0.716,0.338,0.588,0.553,�k�k��,5.1,��
2022/09/28,02:10,0.571,0.820,0.526,1.012,0.715,0.338,0.588,0.554,�k�k��,4.9,��
2022/09/28,02:20,0.570,0.819,0.529,1.013,0.716,0.337,0.588,0.552,�k�k��,4.9,��
2022/09/28,02:30,0.569,0.816,0.526,1.014,0.715,0.338,0.587,0.554,�k�k��,5.5,��
2022/09/28,02:40,0.570,0.819,0.526,1.012,0.716,0.337,0.590,0.555,�k�k��,5.2,��
2022/09/28,02:50,0.568,0.818,0.525,1.013,0.716,0.337,0.589,0.554,�k�k��,4.9,��
2022/09/28,03:00,0.571,0.818,0.527,1.014,0.715,0.337,0.589,0.555,�k�k��,5.4,��
2022/09/28,03:10,0.570,0.817,0.528,1.015,0.718,0.339,0.589,0.555,�k�k��,5.6,��
2022/09/28,03:20,0.570,0.816,0.528,1.011,0.715,0.337,0.588,0.554,�k�k��,6.2,��
2022/09/28,03:30,0.571,0.818,0.527,1.012,0.715,0.338,0.589,0.553,�k�k��,6.2,��
2022/09/28,03:40,0.570,0.817,0.526,1.013,0.716,0.338,0.590,0.553,�k�k��,6.1,��
2022/09/28,03:50,0.571,0.819,0.529,1.012,0.716,0.337,0.588,0.554,�k�k��,6.1,��
2022/09/28,04:00,0.570,0.817,0.528,1.012,0.717,0.338,0.589,0.554,�k�k��,7.1,��
2022/09/28,04:10,0.571,0.819,0.527,1.014,0.714,0.338,0.587,0.554,�k�k��,6.3,��
2022/09/28,04:20,0.570,0.818,0.527,1.014,0.716,0.338,0.590,0.555,�k�k��,6.9,��
2022/09/28,04:30,0.570,0.817,0.526,1.013,0.717,0.337,0.588,0.552,�k�k��,6.3,��
2022/09/28,04:40,0.569,0.816,0.527,1.014,0.715,0.338,0.588,0.556,�k�k��,7.2,��
2022/09/28,04:50,0.569,0.818,0.527,1.015,0.714,0.336,0.588,0.554,�k�k��,6.9,��
2022/09/28,05:00,0.569,0.818,0.525,1.015,0.717,0.337,0.589,0.555,�k�k��,6.1,��
2022/09/28,05:10,0.570,0.818,0.527,1.014,0.718,0.338,0.588,0.554,�k�k��,6.3,��
2022/09/28,05:20,0.569,0.818,0.529,1.012,0.715,0.336,0.590,0.555,�k�k��,5.8,��
2022/09/28,05:30,0.571,0.818,0.527,1.014,0.716,0.338,0.589,0.554,�k�k��,6.7,��
2022/09/28,05:40,0.569,0.816,0.526,1.013,0.716,0.338,0.589,0.554,�k�k��,5.8,��
2022/09/28,05:50,0.570,0.819,0.526,1.015,0.717,0.336,0.585,0.555,�k�k��,5.0,��
2022/09/28,06:00,0.569,0.816,0.528,1.013,0.716,0.337,0.586,0.555,�k�k��,5.6,��
2022/09/28,06:10,0.570,0.818,0.527,1.014,0.716,0.338,0.586,0.554,�k�k��,5.6,��
2022/09/28,06:20,0.571,0.818,0.528,1.015,0.717,0.337,0.587,0.556,�k,5.9,��
2022/09/28,06:30,0.569,0.819,0.527,1.015,0.713,0.339,0.587,0.555,�k�k��,4.6,��
2022/09/28,06:40,0.570,0.817,0.527,1.015,0.717,0.337,0.588,0.555,�k�k��,5.7,��
2022/09/28,06:50,0.570,0.816,0.528,1.015,0.717,0.338,0.587,0.554,�k�k��,6.3,�L
2022/09/28,07:00,0.570,0.818,0.528,1.014,0.715,0.338,0.587,0.554,�k�k��,6.2,�L
2022/09/28,07:10,0.569,0.817,0.528,1.015,0.716,0.338,0.587,0.553,�k,6.5,�L
2022/09/28,07:20,0.570,0.818,0.526,1.013,0.717,0.338,0.586,0.555,�k�k��,7.0,�L
2022/09/28,07:30,0.572,0.818,0.528,1.014,0.717,0.337,0.587,0.554,�k�k��,5.2,�L
2022/09/28,07:40,0.572,0.818,0.527,1.014,0.715,0.338,0.587,0.555,�k�k��,5.7,��
2022/09/28,07:50,0.572,0.815,0.527,1.014,0.719,0.337,0.587,0.555,�k�k��,6.3,��
2022/09/28,08:00,0.571,0.818,0.526,1.015,0.718,0.338,0.587,0.556,�k�k��,5.5,��
2022/09/28,08:10,0.572,0.817,0.528,1.016,0.719,0.338,0.586,0.555,�k�k��,5.0,��
2022/09/28,08:20,0.570,0.816,0.527,1.017,0.717,0.337,0.585,0.555,�k�k��,5.0,��
2022/09/28,08:30,0.556,0.817,0.530,1.013,0.715,0.337,0.587,0.554,�k�k��,4.8,��
2022/09/28,08:40,0.545,0.816,0.529,1.014,0.715,0.336,0.585,0.555,�k�k��,5.4,��
2022/09/28,08:50,0.547,0.815,0.527,1.014,0.716,0.336,0.585,0.552,�k�k��,4.9,��
2022/09/28,09:00,0.544,0.816,0.529,1.015,0.717,0.335,0.587,0.553,�k,5.3,��
2022/09/28,09:10,0.543,0.816,0.528,1.016,0.715,0.336,0.586,0.553,�k,5.8,��
2022/09/28,09:20,0.543,0.815,0.527,1.015,0.715,0.337,0.587,0.553,�k�k��,7.1,��
2022/09/28,09:30,0.544,0.817,0.527,1.015,0.717,0.336,0.586,0.552,�k�k��,6.9,��
2022/09/28,09:40,0.551,0.814,0.527,1.015,0.716,0.337,0.585,0.552,�k,6.9,��
2022/09/28,09:50,0.566,0.815,0.527,1.015,0.716,0.336,0.585,0.552,�k,5.5,��
2022/09/28,10:00,0.566,0.813,0.528,1.016,0.715,0.335,0.587,0.552,�k�k��,5.9,��
2022/09/28,10:10,0.567,0.813,0.528,1.016,0.716,0.337,0.587,0.553,�k,5.8,��
2022/09/28,10:20,0.572,0.815,0.526,1.015,0.715,0.336,0.585,0.554,�k,7.2,��
2022/09/28,10:30,0.575,0.816,0.526,1.016,0.717,0.338,0.586,0.551,�k,7.5,��
2022/09/28,10:40,0.572,0.817,0.526,1.016,0.716,0.338,0.586,0.553,�k,6.9,��
2022/09/28,10:50,0.574,0.817,0.527,1.015,0.716,0.336,0.586,0.554,�k�k��,6.5,��
2022/09/28,11:00,0.572,0.816,0.527,1.016,0.716,0.336,0.585,0.552,�k,6.4,��
2022/09/28,11:10,0.571,0.815,0.526,1.013,0.715,0.337,0.586,0.554,�k�k��,8.0,��
2022/09/28,11:20,0.573,0.817,0.526,1.016,0.717,0.337,0.587,0.554,�k,7.2,��
2022/09/28,11:30,0.574,0.818,0.526,1.015,0.717,0.336,0.586,0.553,�k,7.4,��
2022/09/28,11:40,0.572,0.816,0.527,1.017,0.718,0.337,0.586,0.554,�k,6.8,��
2022/09/28,11:50,0.574,0.818,0.528,1.018,0.716,0.337,0.585,0.554,�k,6.9,��
2022/09/28,12:00,0.574,0.818,0.529,1.016,0.715,0.336,0.586,0.553,�k,7.2,��
2022/09/28,12:10,0.572,0.817,0.529,1.018,0.719,0.337,0.585,0.553,�k�k��,7.7,��
2022/09/28,12:20,0.574,0.818,0.528,1.016,0.717,0.338,0.586,0.555,�k,8.3,��
2022/09/28,12:30,0.574,0.821,0.528,1.017,0.718,0.338,0.586,0.554,�k,8.3,��
2022/09/28,12:40,0.574,0.819,0.529,1.018,0.720,0.337,0.585,0.553,�k,7.3,��
2022/09/28,12:50,0.574,0.820,0.528,1.018,0.718,0.336,0.587,0.554,�k,7.0,��
2022/09/28,13:00,0.574,0.819,0.527,1.019,0.719,0.336,0.586,0.555,�k�k��,7.2,��
2022/09/28,13:10,0.574,0.820,0.529,1.020,0.718,0.337,0.586,0.554,�k,7.6,��
2022/09/28,13:20,0.576,0.819,0.528,1.017,0.720,0.337,0.589,0.555,�k,6.8,��
2022/09/28,13:30,0.574,0.820,0.529,1.018,0.719,0.337,0.586,0.554,�k,5.8,��
2022/09/28,13:40,0.572,0.822,0.527,1.021,0.719,0.338,0.588,0.554,�k,6.8,��
2022/09/28,13:50,0.575,0.819,0.528,1.019,0.719,0.337,0.586,0.554,�k,7.0,��
2022/09/28,14:00,0.574,0.819,0.527,1.019,0.719,0.337,0.587,0.555,�k�k��,7.4,��
2022/09/28,14:10,0.575,0.818,0.528,1.019,0.719,0.338,0.587,0.554,�k,6.6,��
2022/09/28,14:20,0.576,0.819,0.529,1.021,0.720,0.337,0.587,0.554,�k,6.7,��
2022/09/28,14:30,0.578,0.822,0.528,1.019,0.719,0.337,0.588,0.555,�k,7.3,��
2022/09/28,14:40,0.576,0.821,0.529,1.018,0.718,0.337,0.587,0.555,�k,6.1,��
2022/09/28,14:50,0.576,0.821,0.529,1.021,0.720,0.336,0.587,0.554,�k,8.4,��
2022/09/28,15:00,0.574,0.821,0.528,1.022,0.719,0.337,0.588,0.555,�k,7.4,��
2022/09/28,15:10,0.575,0.820,0.527,1.020,0.719,0.337,0.586,0.554,�k,7.1,��
2022/09/28,15:20,0.576,0.819,0.527,1.021,0.719,0.336,0.587,0.553,�k�k��,6.7,��
2022/09/28,15:30,0.577,0.821,0.530,1.022,0.719,0.337,0.586,0.554,�k,5.9,��
2022/09/28,15:40,0.574,0.821,0.531,1.021,0.720,0.337,0.587,0.555,�k�k��,6.6,��
2022/09/28,15:50,0.574,0.821,0.527,1.021,0.717,0.338,0.586,0.554,�k,7.6,��
2022/09/28,16:00,0.575,0.823,0.529,1.022,0.721,0.337,0.586,0.555,�k,6.0,��
2022/09/28,16:10,0.573,0.823,0.529,1.021,0.720,0.337,0.588,0.554,�k,5.6,��
2022/09/28,16:20,0.574,0.824,0.527,1.022,0.720,0.339,0.586,0.554,�k,4.9,��
2022/09/28,16:30,0.575,0.822,0.527,1.021,0.720,0.337,0.586,0.554,�k,4.4,��
2022/09/28,16:40,0.573,0.824,0.527,1.020,0.719,0.339,0.587,0.552,�k,4.8,��
2022/09/28,16:50,0.573,0.824,0.526,1.021,0.720,0.338,0.585,0.555,�k,5.5,��
2022/09/28,17:00,0.574,0.823,0.528,1.020,0.720,0.339,0.587,0.557,�k,5.8,��
2022/09/28,17:10,0.574,0.825,0.529,1.021,0.721,0.337,0.588,0.557,�k,4.4,��
2022/09/28,17:20,0.574,0.825,0.529,1.022,0.721,0.339,0.588,0.556,�k�k��,4.1,��
2022/09/28,17:30,0.574,0.825,0.532,1.023,0.720,0.338,0.587,0.557,�k�k��,4.2,��
2022/09/28,17:40,0.576,0.825,0.529,1.024,0.721,0.339,0.587,0.556,�k�k��,5.1,��
2022/09/28,17:50,0.573,0.826,0.531,1.022,0.723,0.339,0.588,0.557,�k,4.7,��
2022/09/28,18:00,0.576,0.826,0.530,1.023,0.724,0.337,0.587,0.557,�k,4.6,��
2022/09/28,18:10,0.576,0.825,0.530,1.022,0.724,0.338,0.586,0.556,�k�k��,5.1,��
2022/09/28,18:20,0.574,0.826,0.531,1.022,0.724,0.337,0.586,0.555,�k�k��,5.9,��
2022/09/28,18:30,0.574,0.825,0.532,1.023,0.722,0.338,0.587,0.557,�k�k��,5.3,��
2022/09/28,18:40,0.576,0.827,0.531,1.022,0.724,0.338,0.588,0.558,�k�k��,5.3,��
2022/09/28,18:50,0.576,0.825,0.532,1.021,0.721,0.338,0.588,0.558,�k�k��,5.0,��
2022/09/28,19:00,0.576,0.825,0.530,1.022,0.722,0.338,0.587,0.556,�k�k��,4.4,��
2022/09/28,19:10,0.576,0.824,0.530,1.023,0.725,0.339,0.587,0.556,�k�k��,4.6,��
2022/09/28,19:20,0.576,0.828,0.530,1.024,0.724,0.338,0.586,0.556,�k�k��,4.3,��
2022/09/28,19:30,0.576,0.825,0.530,1.023,0.721,0.339,0.588,0.555,�k�k��,4.2,��
2022/09/28,19:40,0.576,0.824,0.532,1.023,0.722,0.339,0.587,0.556,�k��,3.8,��
2022/09/28,19:50,0.575,0.825,0.531,1.023,0.723,0.340,0.586,0.558,�k��,3.0,��
2022/09/28,20:00,0.576,0.826,0.530,1.021,0.722,0.338,0.589,0.555,�k��,3.4,��
2022/09/28,20:10,0.576,0.826,0.530,1.022,0.723,0.340,0.590,0.556,�k��,3.6,��
2022/09/28,20:20,0.576,0.826,0.532,1.023,0.722,0.339,0.588,0.556,�k��,3.3,��
2022/09/28,20:30,0.575,0.826,0.531,1.022,0.721,0.339,0.588,0.556,�k�k��,3.8,��
2022/09/28,20:40,0.575,0.827,0.531,1.024,0.722,0.339,0.588,0.556,�k�k��,3.3,��
2022/09/28,20:50,0.576,0.826,0.531,1.024,0.723,0.338,0.589,0.555,�k�k��,2.9,��
2022/09/28,21:00,0.576,0.826,0.530,1.024,0.723,0.339,0.588,0.556,�k�k��,2.6,��
2022/09/28,21:10,0.576,0.826,0.532,1.022,0.721,0.340,0.588,0.557,�k�k��,2.0,��
2022/09/28,21:20,0.574,0.826,0.531,1.023,0.723,0.339,0.589,0.557,�k�k��,2.3,��
2022/09/28,21:30,0.575,0.825,0.531,1.022,0.723,0.340,0.589,0.555,�k�k��,1.4,��
2022/09/28,21:40,0.575,0.825,0.531,1.023,0.722,0.339,0.590,0.555,�k�k��,1.5,��
2022/09/28,21:50,0.574,0.825,0.529,1.023,0.722,0.339,0.589,0.555,�k�k��,1.9,��
2022/09/28,22:00,0.575,0.824,0.529,1.023,0.724,0.339,0.589,0.555,�k��,2.3,��
2022/09/28,22:10,0.573,0.826,0.529,1.023,0.723,0.339,0.588,0.555,�k��,3.0,��
2022/09/28,22:20,0.574,0.825,0.531,1.023,0.724,0.338,0.589,0.557,�k��,3.0,��
2022/09/28,22:30,0.573,0.825,0.529,1.024,0.723,0.339,0.590,0.555,���k��,3.3,��
2022/09/28,22:40,0.576,0.825,0.529,1.021,0.724,0.340,0.590,0.555,�k��,3.5,��
2022/09/28,22:50,0.574,0.825,0.528,1.023,0.724,0.341,0.589,0.556,���k��,4.1,��
2022/09/28,23:00,0.574,0.824,0.527,1.023,0.722,0.339,0.589,0.556,���k��,4.2,��
2022/09/28,23:10,0.573,0.823,0.530,1.022,0.723,0.338,0.590,0.555,�k��,3.8,��
2022/09/28,23:20,0.574,0.825,0.529,1.024,0.720,0.338,0.590,0.556,���k��,5.5,��
2022/09/28,23:30,0.575,0.826,0.529,1.025,0.723,0.339,0.590,0.556,��,5.0,��
2022/09/28,23:40,0.575,0.823,0.530,1.025,0.721,0.339,0.591,0.554,��,5.6,��
2022/09/28,23:50,0.572,0.826,0.530,1.025,0.722,0.339,0.591,0.556,��,6.2,��
